﻿_id,日時,10分間移動積算雨量(mm),1時間移動積算雨量(mm),日雨量(mm),累計雨量(mm)
1,2024-05-13T00:00:00,1.5,8,19,19
2,2024-05-13T00:01:00,1.5,8,0,19
3,2024-05-13T00:02:00,1.5,8,0,19
4,2024-05-13T00:03:00,1.5,8,0,19
5,2024-05-13T00:04:00,1,7.5,0,19
6,2024-05-13T00:05:00,1.5,8,0.5,19.5
7,2024-05-13T00:06:00,1.5,8,0.5,19.5
8,2024-05-13T00:07:00,1,8,0.5,19.5
9,2024-05-13T00:08:00,1,8,0.5,19.5
10,2024-05-13T00:09:00,1.5,8.5,1,20
11,2024-05-13T00:10:00,1,8.5,1,20
12,2024-05-13T00:11:00,1,8.5,1,20
13,2024-05-13T00:12:00,1,8,1,20
14,2024-05-13T00:13:00,1.5,8.5,1.5,20.5
15,2024-05-13T00:14:00,1.5,8.5,1.5,20.5
16,2024-05-13T00:15:00,1,8.5,1.5,20.5
17,2024-05-13T00:16:00,1,8.5,1.5,20.5
18,2024-05-13T00:17:00,1.5,9,2,21
19,2024-05-13T00:18:00,1.5,8.5,2,21
20,2024-05-13T00:19:00,1,8.5,2,21
21,2024-05-13T00:20:00,1,8.5,2,21
22,2024-05-13T00:21:00,1,8.5,2,21
23,2024-05-13T00:22:00,1.5,8.5,2.5,21.5
24,2024-05-13T00:23:00,1,8.5,2.5,21.5
25,2024-05-13T00:24:00,1,8,2.5,21.5
26,2024-05-13T00:25:00,1,8,2.5,21.5
27,2024-05-13T00:26:00,1,8,2.5,21.5
28,2024-05-13T00:27:00,0.5,8,2.5,21.5
29,2024-05-13T00:28:00,1,8,3,22
30,2024-05-13T00:29:00,1,8,3,22
31,2024-05-13T00:30:00,1,8,3,22
32,2024-05-13T00:31:00,1,7.5,3,22
33,2024-05-13T00:32:00,,,,
34,2024-05-13T00:33:00,0.5,7.5,3,22
35,2024-05-13T00:34:00,0.5,7.5,3,22
36,2024-05-13T00:35:00,1,8,3.5,22.5
37,2024-05-13T00:36:00,1,7.5,3.5,22.5
38,2024-05-13T00:37:00,1,7.5,3.5,22.5
39,2024-05-13T00:38:00,0.5,7,3.5,22.5
40,2024-05-13T00:39:00,0.5,7,3.5,22.5
41,2024-05-13T00:40:00,0.5,6.5,3.5,22.5
42,2024-05-13T00:41:00,0.5,6.5,3.5,22.5
43,2024-05-13T00:42:00,0.5,6.5,3.5,22.5
44,2024-05-13T00:43:00,0.5,6,3.5,22.5
45,2024-05-13T00:44:00,1,6.5,4,23
46,2024-05-13T00:45:00,0.5,6,4,23
47,2024-05-13T00:46:00,0.5,6,4,23
48,2024-05-13T00:47:00,0.5,6,4,23
49,2024-05-13T00:48:00,0.5,6,4,23
50,2024-05-13T00:49:00,0.5,6,4,23
51,2024-05-13T00:50:00,0.5,5.5,4,23
52,2024-05-13T00:51:00,0.5,5.5,4,23
53,2024-05-13T00:52:00,0.5,5.5,4,23
54,2024-05-13T00:53:00,0.5,5.5,4,23
55,2024-05-13T00:54:00,0,5,4,23
56,2024-05-13T00:55:00,0.5,5.5,4.5,23.5
57,2024-05-13T00:56:00,0.5,5.5,4.5,23.5
58,2024-05-13T00:57:00,0.5,5,4.5,23.5
59,2024-05-13T00:58:00,0.5,5,4.5,23.5
60,2024-05-13T00:59:00,0.5,5,4.5,23.5
61,2024-05-13T01:00:00,0.5,4.5,4.5,23.5
62,2024-05-13T01:01:00,0.5,4.5,4.5,23.5
63,2024-05-13T01:02:00,1,5,5,24
64,2024-05-13T01:03:00,1,5,5,24
65,2024-05-13T01:04:00,1,5,5,24
66,2024-05-13T01:05:00,0.5,4.5,5,24
67,2024-05-13T01:06:00,0.5,4.5,5,24
68,2024-05-13T01:07:00,0.5,4.5,5,24
69,2024-05-13T01:08:00,1,5,5.5,24.5
70,2024-05-13T01:09:00,1,4.5,5.5,24.5
71,2024-05-13T01:10:00,1,4.5,5.5,24.5
72,2024-05-13T01:11:00,1,4.5,5.5,24.5
73,2024-05-13T01:12:00,0.5,4.5,5.5,24.5
74,2024-05-13T01:13:00,0.5,4,5.5,24.5
75,2024-05-13T01:14:00,1,4.5,6,25
76,2024-05-13T01:15:00,1,4.5,6,25
77,2024-05-13T01:16:00,1,4.5,6,25
78,2024-05-13T01:17:00,1,4,6,25
79,2024-05-13T01:18:00,0.5,4,6,25
80,2024-05-13T01:19:00,0.5,4,6,25
81,2024-05-13T01:20:00,1,4.5,6.5,25.5
82,2024-05-13T01:21:00,1,4.5,6.5,25.5
83,2024-05-13T01:22:00,1,4,6.5,25.5
84,2024-05-13T01:23:00,1,4,6.5,25.5
85,2024-05-13T01:24:00,0.5,4,6.5,25.5
86,2024-05-13T01:25:00,0.5,4,6.5,25.5
87,2024-05-13T01:26:00,0.5,4,6.5,25.5
88,2024-05-13T01:27:00,0.5,4,6.5,25.5
89,2024-05-13T01:28:00,0.5,3.5,6.5,25.5
90,2024-05-13T01:29:00,1,4,7,26
91,2024-05-13T01:30:00,0.5,4,7,26
92,2024-05-13T01:31:00,0.5,4,7,26
93,2024-05-13T01:32:00,0.5,4,7,26
94,2024-05-13T01:33:00,0.5,4,7,26
95,2024-05-13T01:34:00,0.5,4,7,26
96,2024-05-13T01:35:00,0.5,3.5,7,26
97,2024-05-13T01:36:00,0.5,3.5,7,26
98,2024-05-13T01:37:00,1,4,7.5,26.5
99,2024-05-13T01:38:00,1,4,7.5,26.5
100,2024-05-13T01:39:00,0.5,4,7.5,26.5
101,2024-05-13T01:40:00,0.5,4,7.5,26.5
102,2024-05-13T01:41:00,0.5,4,7.5,26.5
103,2024-05-13T01:42:00,0.5,4,7.5,26.5
104,2024-05-13T01:43:00,0.5,4,7.5,26.5
105,2024-05-13T01:44:00,0.5,3.5,7.5,26.5
106,2024-05-13T01:45:00,0.5,3.5,7.5,26.5
107,2024-05-13T01:46:00,0.5,3.5,7.5,26.5
108,2024-05-13T01:47:00,0,3.5,7.5,26.5
109,2024-05-13T01:48:00,0,3.5,7.5,26.5
110,2024-05-13T01:49:00,0.5,4,8,27
111,2024-05-13T01:50:00,0.5,4,8,27
112,2024-05-13T01:51:00,0.5,4,8,27
113,2024-05-13T01:52:00,0.5,4,8,27
114,2024-05-13T01:53:00,0.5,4,8,27
115,2024-05-13T01:54:00,0.5,4,8,27
116,2024-05-13T01:55:00,0.5,3.5,8,27
117,2024-05-13T01:56:00,0.5,3.5,8,27
118,2024-05-13T01:57:00,0.5,3.5,8,27
119,2024-05-13T01:58:00,1,4,8.5,27.5
120,2024-05-13T01:59:00,0.5,4,8.5,27.5
121,2024-05-13T02:00:00,0.5,4,8.5,27.5
122,2024-05-13T02:01:00,0.5,4,8.5,27.5
123,2024-05-13T02:02:00,0.5,3.5,8.5,27.5
124,2024-05-13T02:03:00,0.5,3.5,8.5,27.5
125,2024-05-13T02:04:00,1,4,9,28
126,2024-05-13T02:05:00,1,4,9,28
127,2024-05-13T02:06:00,1,4,9,28
128,2024-05-13T02:07:00,1,4,9,28
129,2024-05-13T02:08:00,0.5,3.5,9,28
130,2024-05-13T02:09:00,1,4,9.5,28.5
131,2024-05-13T02:10:00,1,4,9.5,28.5
132,2024-05-13T02:11:00,1,4,9.5,28.5
133,2024-05-13T02:12:00,1,4,9.5,28.5
134,2024-05-13T02:13:00,1.5,4.5,10,29
135,2024-05-13T02:14:00,1,4,10,29
136,2024-05-13T02:15:00,1,4,10,29
137,2024-05-13T02:16:00,1,4,10,29
138,2024-05-13T02:17:00,1,4,10,29
139,2024-05-13T02:18:00,1,4,10,29
140,2024-05-13T02:19:00,0.5,4,10,29
141,2024-05-13T02:20:00,0.5,3.5,10,29
142,2024-05-13T02:21:00,0.5,3.5,10,29
143,2024-05-13T02:22:00,0.5,3.5,10,29
144,2024-05-13T02:23:00,0.5,4,10.5,29.5
145,2024-05-13T02:24:00,0.5,4,10.5,29.5
146,2024-05-13T02:25:00,0.5,4,10.5,29.5
147,2024-05-13T02:26:00,0.5,4,10.5,29.5
148,2024-05-13T02:27:00,0.5,4,10.5,29.5
149,2024-05-13T02:28:00,0.5,4,10.5,29.5
150,2024-05-13T02:29:00,0.5,3.5,10.5,29.5
151,2024-05-13T02:30:00,0.5,3.5,10.5,29.5
152,2024-05-13T02:31:00,0.5,3.5,10.5,29.5
153,2024-05-13T02:32:00,0.5,3.5,10.5,29.5
154,2024-05-13T02:33:00,0,3.5,10.5,29.5
155,2024-05-13T02:34:00,0,3.5,10.5,29.5
156,2024-05-13T02:35:00,0.5,4,11,30
157,2024-05-13T02:36:00,0.5,4,11,30
158,2024-05-13T02:37:00,0.5,3.5,11,30
159,2024-05-13T02:38:00,0.5,3.5,11,30
160,2024-05-13T02:39:00,0.5,3.5,11,30
161,2024-05-13T02:40:00,0.5,3.5,11,30
162,2024-05-13T02:41:00,0.5,3.5,11,30
163,2024-05-13T02:42:00,0.5,3.5,11,30
164,2024-05-13T02:43:00,0.5,3.5,11,30
165,2024-05-13T02:44:00,0.5,3.5,11,30
166,2024-05-13T02:45:00,0,3.5,11,30
167,2024-05-13T02:46:00,0,3.5,11,30
168,2024-05-13T02:47:00,0,3.5,11,30
169,2024-05-13T02:48:00,0,3.5,11,30
170,2024-05-13T02:49:00,0,3,11,30
171,2024-05-13T02:50:00,0,3,11,30
172,2024-05-13T02:51:00,0,3,11,30
173,2024-05-13T02:52:00,0,3,11,30
174,2024-05-13T02:53:00,0,3,11,30
175,2024-05-13T02:54:00,0,3,11,30
176,2024-05-13T02:55:00,0,3,11,30
177,2024-05-13T02:56:00,0,3,11,30
178,2024-05-13T02:57:00,0,3,11,30
179,2024-05-13T02:58:00,0,2.5,11,30
180,2024-05-13T02:59:00,0,2.5,11,30
181,2024-05-13T03:00:00,0,2.5,11,30
182,2024-05-13T03:01:00,0,2.5,11,30
183,2024-05-13T03:02:00,0,2.5,11,30
184,2024-05-13T03:03:00,0,2.5,11,30
185,2024-05-13T03:04:00,0.5,2.5,11.5,30.5
186,2024-05-13T03:05:00,0.5,2.5,11.5,30.5
187,2024-05-13T03:06:00,0.5,2.5,11.5,30.5
188,2024-05-13T03:07:00,0.5,2.5,11.5,30.5
189,2024-05-13T03:08:00,0.5,2.5,11.5,30.5
190,2024-05-13T03:09:00,0.5,2,11.5,30.5
191,2024-05-13T03:10:00,0.5,2,11.5,30.5
192,2024-05-13T03:11:00,0.5,2,11.5,30.5
193,2024-05-13T03:12:00,0.5,2,11.5,30.5
194,2024-05-13T03:13:00,0.5,1.5,11.5,30.5
195,2024-05-13T03:14:00,0,1.5,11.5,30.5
196,2024-05-13T03:15:00,0,1.5,11.5,30.5
197,2024-05-13T03:16:00,0,1.5,11.5,30.5
198,2024-05-13T03:17:00,0,1.5,11.5,30.5
199,2024-05-13T03:18:00,0,1.5,11.5,30.5
200,2024-05-13T03:19:00,0,1.5,11.5,30.5
201,2024-05-13T03:20:00,0,1.5,11.5,30.5
202,2024-05-13T03:21:00,0,1.5,11.5,30.5
203,2024-05-13T03:22:00,0,1.5,11.5,30.5
204,2024-05-13T03:23:00,0,1,11.5,30.5
205,2024-05-13T03:24:00,0,1,11.5,30.5
206,2024-05-13T03:25:00,0.5,1.5,12,31
207,2024-05-13T03:26:00,0.5,1.5,12,31
208,2024-05-13T03:27:00,0.5,1.5,12,31
209,2024-05-13T03:28:00,0.5,1.5,12,31
210,2024-05-13T03:29:00,0.5,1.5,12,31
211,2024-05-13T03:30:00,0.5,1.5,12,31
212,2024-05-13T03:31:00,0.5,1.5,12,31
213,2024-05-13T03:32:00,0.5,1.5,12,31
214,2024-05-13T03:33:00,0.5,1.5,12,31
215,2024-05-13T03:34:00,0.5,1.5,12,31
216,2024-05-13T03:35:00,0,1,12,31
217,2024-05-13T03:36:00,0,1,12,31
218,2024-05-13T03:37:00,0,1,12,31
219,2024-05-13T03:38:00,0,1,12,31
220,2024-05-13T03:39:00,0,1,12,31
221,2024-05-13T03:40:00,0,1,12,31
222,2024-05-13T03:41:00,0.5,1.5,12.5,31.5
223,2024-05-13T03:42:00,0.5,1.5,12.5,31.5
224,2024-05-13T03:43:00,0.5,1.5,12.5,31.5
225,2024-05-13T03:44:00,0.5,1.5,12.5,31.5
226,2024-05-13T03:45:00,0.5,1.5,12.5,31.5
227,2024-05-13T03:46:00,0.5,1.5,12.5,31.5
228,2024-05-13T03:47:00,0.5,1.5,12.5,31.5
229,2024-05-13T03:48:00,0.5,1.5,12.5,31.5
230,2024-05-13T03:49:00,0.5,1.5,12.5,31.5
231,2024-05-13T03:50:00,0.5,1.5,12.5,31.5
232,2024-05-13T03:51:00,0,1.5,12.5,31.5
233,2024-05-13T03:52:00,0,1.5,12.5,31.5
234,2024-05-13T03:53:00,0,1.5,12.5,31.5
235,2024-05-13T03:54:00,0,1.5,12.5,31.5
236,2024-05-13T03:55:00,0.5,2,13,32
237,2024-05-13T03:56:00,0.5,2,13,32
238,2024-05-13T03:57:00,0.5,2,13,32
239,2024-05-13T03:58:00,0.5,2,13,32
240,2024-05-13T03:59:00,0.5,2,13,32
241,2024-05-13T04:00:00,0.5,2,13,32
242,2024-05-13T04:01:00,0.5,2,13,32
243,2024-05-13T04:02:00,0.5,2,13,32
244,2024-05-13T04:03:00,0.5,2,13,32
245,2024-05-13T04:04:00,0.5,1.5,13,32
246,2024-05-13T04:05:00,0,1.5,13,32
247,2024-05-13T04:06:00,0,1.5,13,32
248,2024-05-13T04:07:00,0.5,2,13.5,32.5
249,2024-05-13T04:08:00,0.5,2,13.5,32.5
250,2024-05-13T04:09:00,0.5,2,13.5,32.5
251,2024-05-13T04:10:00,0.5,2,13.5,32.5
252,2024-05-13T04:11:00,0.5,2,13.5,32.5
253,2024-05-13T04:12:00,0.5,2,13.5,32.5
254,2024-05-13T04:13:00,0.5,2,13.5,32.5
255,2024-05-13T04:14:00,0.5,2,13.5,32.5
256,2024-05-13T04:15:00,0.5,2,13.5,32.5
257,2024-05-13T04:16:00,0.5,2,13.5,32.5
258,2024-05-13T04:17:00,0,2,13.5,32.5
259,2024-05-13T04:18:00,0,2,13.5,32.5
260,2024-05-13T04:19:00,0,2,13.5,32.5
261,2024-05-13T04:20:00,0,2,13.5,32.5
262,2024-05-13T04:21:00,0.5,2.5,14,33
263,2024-05-13T04:22:00,0.5,2.5,14,33
264,2024-05-13T04:23:00,0.5,2.5,14,33
265,2024-05-13T04:24:00,0.5,2.5,14,33
266,2024-05-13T04:25:00,0.5,2,14,33
267,2024-05-13T04:26:00,0.5,2,14,33
268,2024-05-13T04:27:00,0.5,2,14,33
269,2024-05-13T04:28:00,0.5,2,14,33
270,2024-05-13T04:29:00,0.5,2,14,33
271,2024-05-13T04:30:00,0.5,2,14,33
272,2024-05-13T04:31:00,0,2,14,33
273,2024-05-13T04:32:00,0,2,14,33
274,2024-05-13T04:33:00,0,2,14,33
275,2024-05-13T04:34:00,0,2,14,33
276,2024-05-13T04:35:00,0,2,14,33
277,2024-05-13T04:36:00,0,2,14,33
278,2024-05-13T04:37:00,0.5,2.5,14.5,33.5
279,2024-05-13T04:38:00,0.5,2.5,14.5,33.5
280,2024-05-13T04:39:00,0.5,2.5,14.5,33.5
281,2024-05-13T04:40:00,0.5,2.5,14.5,33.5
282,2024-05-13T04:41:00,0.5,2,14.5,33.5
283,2024-05-13T04:42:00,0.5,2,14.5,33.5
284,2024-05-13T04:43:00,0.5,2,14.5,33.5
285,2024-05-13T04:44:00,0.5,2,14.5,33.5
286,2024-05-13T04:45:00,0.5,2,14.5,33.5
287,2024-05-13T04:46:00,0.5,2,14.5,33.5
288,2024-05-13T04:47:00,0,2,14.5,33.5
289,2024-05-13T04:48:00,0,2,14.5,33.5
290,2024-05-13T04:49:00,0,2,14.5,33.5
291,2024-05-13T04:50:00,0,2,14.5,33.5
292,2024-05-13T04:51:00,0,2,14.5,33.5
293,2024-05-13T04:52:00,0,2,14.5,33.5
294,2024-05-13T04:53:00,0,2,14.5,33.5
295,2024-05-13T04:54:00,0,2,14.5,33.5
296,2024-05-13T04:55:00,0,1.5,14.5,33.5
297,2024-05-13T04:56:00,0,1.5,14.5,33.5
298,2024-05-13T04:57:00,0,1.5,14.5,33.5
299,2024-05-13T04:58:00,0,1.5,14.5,33.5
300,2024-05-13T04:59:00,0,1.5,14.5,33.5
301,2024-05-13T05:00:00,0,1.5,14.5,33.5
302,2024-05-13T05:01:00,0,1.5,14.5,33.5
303,2024-05-13T05:02:00,0,1.5,14.5,33.5
304,2024-05-13T05:03:00,0,1.5,14.5,33.5
305,2024-05-13T05:04:00,0,1.5,14.5,33.5
306,2024-05-13T05:05:00,0,1.5,14.5,33.5
307,2024-05-13T05:06:00,0,1.5,14.5,33.5
308,2024-05-13T05:07:00,0,1,14.5,33.5
309,2024-05-13T05:08:00,0,1,14.5,33.5
310,2024-05-13T05:09:00,0,1,14.5,33.5
311,2024-05-13T05:10:00,0,1,14.5,33.5
312,2024-05-13T05:11:00,0,1,14.5,33.5
313,2024-05-13T05:12:00,0,1,14.5,33.5
314,2024-05-13T05:13:00,0,1,14.5,33.5
315,2024-05-13T05:14:00,0,1,14.5,33.5
316,2024-05-13T05:15:00,0,1,14.5,33.5
317,2024-05-13T05:16:00,0,1,14.5,33.5
318,2024-05-13T05:17:00,0,1,14.5,33.5
319,2024-05-13T05:18:00,0,1,14.5,33.5
320,2024-05-13T05:19:00,0.5,1.5,15,34
321,2024-05-13T05:20:00,0.5,1.5,15,34
322,2024-05-13T05:21:00,0.5,1,15,34
323,2024-05-13T05:22:00,0.5,1,15,34
324,2024-05-13T05:23:00,0.5,1,15,34
325,2024-05-13T05:24:00,0.5,1,15,34
326,2024-05-13T05:25:00,0.5,1,15,34
327,2024-05-13T05:26:00,0.5,1,15,34
328,2024-05-13T05:27:00,0.5,1,15,34
329,2024-05-13T05:28:00,0.5,1,15,34
330,2024-05-13T05:29:00,0,1,15,34
331,2024-05-13T05:30:00,0,1,15,34
332,2024-05-13T05:31:00,0,1,15,34
333,2024-05-13T05:32:00,0,1,15,34
334,2024-05-13T05:33:00,0,1,15,34
335,2024-05-13T05:34:00,0,1,15,34
336,2024-05-13T05:35:00,0,1,15,34
337,2024-05-13T05:36:00,0,1,15,34
338,2024-05-13T05:37:00,0,0.5,15,34
339,2024-05-13T05:38:00,0,0.5,15,34
340,2024-05-13T05:39:00,0,0.5,15,34
341,2024-05-13T05:40:00,0,0.5,15,34
342,2024-05-13T05:41:00,0,0.5,15,34
343,2024-05-13T05:42:00,0,0.5,15,34
344,2024-05-13T05:43:00,0.5,1,15.5,34.5
345,2024-05-13T05:44:00,0.5,1,15.5,34.5
346,2024-05-13T05:45:00,0.5,1,15.5,34.5
347,2024-05-13T05:46:00,0.5,1,15.5,34.5
348,2024-05-13T05:47:00,0.5,1,15.5,34.5
349,2024-05-13T05:48:00,0.5,1,15.5,34.5
350,2024-05-13T05:49:00,0.5,1,15.5,34.5
351,2024-05-13T05:50:00,0.5,1,15.5,34.5
352,2024-05-13T05:51:00,0.5,1,15.5,34.5
353,2024-05-13T05:52:00,0.5,1,15.5,34.5
354,2024-05-13T05:53:00,0,1,15.5,34.5
355,2024-05-13T05:54:00,0,1,15.5,34.5
356,2024-05-13T05:55:00,0,1,15.5,34.5
357,2024-05-13T05:56:00,0,1,15.5,34.5
358,2024-05-13T05:57:00,0,1,15.5,34.5
359,2024-05-13T05:58:00,0,1,15.5,34.5
360,2024-05-13T05:59:00,0,1,15.5,34.5
361,2024-05-13T06:00:00,0,1,15.5,34.5
362,2024-05-13T06:01:00,0,1,15.5,34.5
363,2024-05-13T06:02:00,0,1,15.5,34.5
364,2024-05-13T06:03:00,0,1,15.5,34.5
365,2024-05-13T06:04:00,0,1,15.5,34.5
366,2024-05-13T06:05:00,0,1,15.5,34.5
367,2024-05-13T06:06:00,0,1,15.5,34.5
368,2024-05-13T06:07:00,0,1,15.5,34.5
369,2024-05-13T06:08:00,0,1,15.5,34.5
370,2024-05-13T06:09:00,0,1,15.5,34.5
371,2024-05-13T06:10:00,0,1,15.5,34.5
372,2024-05-13T06:11:00,0,1,15.5,34.5
373,2024-05-13T06:12:00,0,1,15.5,34.5
374,2024-05-13T06:13:00,0,1,15.5,34.5
375,2024-05-13T06:14:00,0,1,15.5,34.5
376,2024-05-13T06:15:00,0,1,15.5,34.5
377,2024-05-13T06:16:00,0,1,15.5,34.5
378,2024-05-13T06:17:00,0,1,15.5,34.5
379,2024-05-13T06:18:00,0,1,15.5,34.5
380,2024-05-13T06:19:00,0,0.5,15.5,34.5
381,2024-05-13T06:20:00,0,0.5,15.5,34.5
382,2024-05-13T06:21:00,0,0.5,15.5,34.5
383,2024-05-13T06:22:00,0,0.5,15.5,34.5
384,2024-05-13T06:23:00,0,0.5,15.5,34.5
385,2024-05-13T06:24:00,0.5,1,16,35
386,2024-05-13T06:25:00,0.5,1,16,35
387,2024-05-13T06:26:00,0.5,1,16,35
388,2024-05-13T06:27:00,0.5,1,16,35
389,2024-05-13T06:28:00,0.5,1,16,35
390,2024-05-13T06:29:00,0.5,1,16,35
391,2024-05-13T06:30:00,0.5,1,16,35
392,2024-05-13T06:31:00,0.5,1,16,35
393,2024-05-13T06:32:00,0.5,1,16,35
394,2024-05-13T06:33:00,0.5,1,16,35
395,2024-05-13T06:34:00,0,1,16,35
396,2024-05-13T06:35:00,0,1,16,35
397,2024-05-13T06:36:00,0,1,16,35
398,2024-05-13T06:37:00,0,1,16,35
399,2024-05-13T06:38:00,0,1,16,35
400,2024-05-13T06:39:00,0,1,16,35
401,2024-05-13T06:40:00,0,1,16,35
402,2024-05-13T06:41:00,0,1,16,35
403,2024-05-13T06:42:00,0,1,16,35
404,2024-05-13T06:43:00,0,0.5,16,35
405,2024-05-13T06:44:00,0,0.5,16,35
406,2024-05-13T06:45:00,0,0.5,16,35
407,2024-05-13T06:46:00,0,0.5,16,35
408,2024-05-13T06:47:00,0,0.5,16,35
409,2024-05-13T06:48:00,0,0.5,16,35
410,2024-05-13T06:49:00,0,0.5,16,35
411,2024-05-13T06:50:00,0,0.5,16,35
412,2024-05-13T06:51:00,0,0.5,16,35
413,2024-05-13T06:52:00,0,0.5,16,35
414,2024-05-13T06:53:00,0,0.5,16,35
415,2024-05-13T06:54:00,0,0.5,16,35
416,2024-05-13T06:55:00,0,0.5,16,35
417,2024-05-13T06:56:00,0,0.5,16,35
418,2024-05-13T06:57:00,0,0.5,16,35
419,2024-05-13T06:58:00,0,0.5,16,35
420,2024-05-13T06:59:00,0,0.5,16,35
421,2024-05-13T07:00:00,0,0.5,16,35
422,2024-05-13T07:01:00,0,0.5,16,35
423,2024-05-13T07:02:00,0,0.5,16,35
424,2024-05-13T07:03:00,0,0.5,16,35
425,2024-05-13T07:04:00,0,0.5,16,35
426,2024-05-13T07:05:00,0,0.5,16,35
427,2024-05-13T07:06:00,0,0.5,16,35
428,2024-05-13T07:07:00,0,0.5,16,35
429,2024-05-13T07:08:00,0,0.5,16,35
430,2024-05-13T07:09:00,0,0.5,16,35
431,2024-05-13T07:10:00,0,0.5,16,35
432,2024-05-13T07:11:00,0,0.5,16,35
433,2024-05-13T07:12:00,0,0.5,16,35
434,2024-05-13T07:13:00,0,0.5,16,35
435,2024-05-13T07:14:00,0,0.5,16,35
436,2024-05-13T07:15:00,0,0.5,16,35
437,2024-05-13T07:16:00,0,0.5,16,35
438,2024-05-13T07:17:00,0,0.5,16,35
439,2024-05-13T07:18:00,0,0.5,16,35
440,2024-05-13T07:19:00,0,0.5,16,35
441,2024-05-13T07:20:00,0,0.5,16,35
442,2024-05-13T07:21:00,0,0.5,16,35
443,2024-05-13T07:22:00,0,0.5,16,35
444,2024-05-13T07:23:00,,,,
445,2024-05-13T07:24:00,0,0,16,35
446,2024-05-13T07:25:00,0,0,16,35
447,2024-05-13T07:26:00,0,0,16,35
448,2024-05-13T07:27:00,0,0,16,35
449,2024-05-13T07:28:00,0,0,16,35
450,2024-05-13T07:29:00,0,0,16,35
451,2024-05-13T07:30:00,0,0,16,35
452,2024-05-13T07:31:00,0,0,16,35
453,2024-05-13T07:32:00,0,0,16,35
454,2024-05-13T07:33:00,0,0,16,35
455,2024-05-13T07:34:00,0,0,16,35
456,2024-05-13T07:35:00,0,0,16,35
457,2024-05-13T07:36:00,0,0,16,35
458,2024-05-13T07:37:00,0,0,16,35
459,2024-05-13T07:38:00,0,0,16,35
460,2024-05-13T07:39:00,0,0,16,35
461,2024-05-13T07:40:00,0,0,16,35
462,2024-05-13T07:41:00,0,0,16,35
463,2024-05-13T07:42:00,0,0,16,35
464,2024-05-13T07:43:00,0,0,16,35
465,2024-05-13T07:44:00,0,0,16,35
466,2024-05-13T07:45:00,0,0,16,35
467,2024-05-13T07:46:00,0,0,16,35
468,2024-05-13T07:47:00,0,0,16,35
469,2024-05-13T07:48:00,0,0,16,35
470,2024-05-13T07:49:00,0,0,16,35
471,2024-05-13T07:50:00,0,0,16,35
472,2024-05-13T07:51:00,0,0,16,35
473,2024-05-13T07:52:00,0,0,16,35
474,2024-05-13T07:53:00,0,0,16,35
475,2024-05-13T07:54:00,0,0,16,35
476,2024-05-13T07:55:00,0,0,16,35
477,2024-05-13T07:56:00,0,0,16,35
478,2024-05-13T07:57:00,0,0,16,35
479,2024-05-13T07:58:00,0,0,16,35
480,2024-05-13T07:59:00,0,0,16,35
481,2024-05-13T08:00:00,0,0,16,35
482,2024-05-13T08:01:00,0,0,16,35
483,2024-05-13T08:02:00,0,0,16,35
484,2024-05-13T08:03:00,0,0,16,35
485,2024-05-13T08:04:00,0,0,16,35
486,2024-05-13T08:05:00,0,0,16,35
487,2024-05-13T08:06:00,0,0,16,35
488,2024-05-13T08:07:00,0,0,16,35
489,2024-05-13T08:08:00,0,0,16,35
490,2024-05-13T08:09:00,0,0,16,35
491,2024-05-13T08:10:00,0,0,16,35
492,2024-05-13T08:11:00,0,0,16,35
493,2024-05-13T08:12:00,0,0,16,35
494,2024-05-13T08:13:00,0,0,16,35
495,2024-05-13T08:14:00,0,0,16,35
496,2024-05-13T08:15:00,0,0,16,35
497,2024-05-13T08:16:00,0,0,16,35
498,2024-05-13T08:17:00,0,0,16,35
499,2024-05-13T08:18:00,0,0,16,35
500,2024-05-13T08:19:00,0,0,16,35
501,2024-05-13T08:20:00,0,0,16,35
502,2024-05-13T08:21:00,0,0,16,35
503,2024-05-13T08:22:00,0,0,16,35
504,2024-05-13T08:23:00,0,0,16,35
505,2024-05-13T08:24:00,0,0,16,35
506,2024-05-13T08:25:00,0,0,16,35
507,2024-05-13T08:26:00,0,0,16,35
508,2024-05-13T08:27:00,0,0,16,35
509,2024-05-13T08:28:00,0,0,16,35
510,2024-05-13T08:29:00,0,0,16,35
511,2024-05-13T08:30:00,0,0,16,35
512,2024-05-13T08:31:00,0,0,16,35
513,2024-05-13T08:32:00,0,0,16,35
514,2024-05-13T08:33:00,0,0,16,35
515,2024-05-13T08:34:00,0,0,16,35
516,2024-05-13T08:35:00,0,0,16,35
517,2024-05-13T08:36:00,0,0,16,35
518,2024-05-13T08:37:00,0.5,0.5,16.5,35.5
519,2024-05-13T08:38:00,0.5,0.5,16.5,35.5
520,2024-05-13T08:39:00,0.5,0.5,16.5,35.5
521,2024-05-13T08:40:00,0.5,0.5,16.5,35.5
522,2024-05-13T08:41:00,0.5,0.5,16.5,35.5
523,2024-05-13T08:42:00,0.5,0.5,16.5,35.5
524,2024-05-13T08:43:00,0.5,0.5,16.5,35.5
525,2024-05-13T08:44:00,0.5,0.5,16.5,35.5
526,2024-05-13T08:45:00,0.5,0.5,16.5,35.5
527,2024-05-13T08:46:00,0.5,0.5,16.5,35.5
528,2024-05-13T08:47:00,0,0.5,16.5,35.5
529,2024-05-13T08:48:00,0,0.5,16.5,35.5
530,2024-05-13T08:49:00,0,0.5,16.5,35.5
531,2024-05-13T08:50:00,0,0.5,16.5,35.5
532,2024-05-13T08:51:00,0,0.5,16.5,35.5
533,2024-05-13T08:52:00,0,0.5,16.5,35.5
534,2024-05-13T08:53:00,0,0.5,16.5,35.5
535,2024-05-13T08:54:00,0,0.5,16.5,35.5
536,2024-05-13T08:55:00,0,0.5,16.5,35.5
537,2024-05-13T08:56:00,0,0.5,16.5,35.5
538,2024-05-13T08:57:00,0,0.5,16.5,35.5
539,2024-05-13T08:58:00,0,0.5,16.5,35.5
540,2024-05-13T08:59:00,0,0.5,16.5,35.5
541,2024-05-13T09:00:00,0,0.5,16.5,35.5
542,2024-05-13T09:01:00,0,0.5,16.5,35.5
543,2024-05-13T09:02:00,0,0.5,16.5,35.5
544,2024-05-13T09:03:00,0,0.5,16.5,35.5
545,2024-05-13T09:04:00,0,0.5,16.5,35.5
546,2024-05-13T09:05:00,0,0.5,16.5,35.5
547,2024-05-13T09:06:00,0,0.5,16.5,35.5
548,2024-05-13T09:07:00,0,0.5,16.5,35.5
549,2024-05-13T09:08:00,0,0.5,16.5,35.5
550,2024-05-13T09:09:00,0,0.5,16.5,35.5
551,2024-05-13T09:10:00,0,0.5,16.5,35.5
552,2024-05-13T09:11:00,0,0.5,16.5,35.5
553,2024-05-13T09:12:00,0,0.5,16.5,35.5
554,2024-05-13T09:13:00,0,0.5,16.5,35.5
555,2024-05-13T09:14:00,0,0.5,16.5,35.5
556,2024-05-13T09:15:00,0,0.5,16.5,35.5
557,2024-05-13T09:16:00,0,0.5,16.5,35.5
558,2024-05-13T09:17:00,0,0.5,16.5,35.5
559,2024-05-13T09:18:00,0,0.5,16.5,35.5
560,2024-05-13T09:19:00,0,0.5,16.5,35.5
561,2024-05-13T09:20:00,0,0.5,16.5,35.5
562,2024-05-13T09:21:00,0,0.5,16.5,35.5
563,2024-05-13T09:22:00,0,0.5,16.5,35.5
564,2024-05-13T09:23:00,0,0.5,16.5,35.5
565,2024-05-13T09:24:00,0,0.5,16.5,35.5
566,2024-05-13T09:25:00,0,0.5,16.5,35.5
567,2024-05-13T09:26:00,0,0.5,16.5,35.5
568,2024-05-13T09:27:00,0,0.5,16.5,35.5
569,2024-05-13T09:28:00,0,0.5,16.5,35.5
570,2024-05-13T09:29:00,0,0.5,16.5,35.5
571,2024-05-13T09:30:00,0,0.5,16.5,35.5
572,2024-05-13T09:31:00,0,0.5,16.5,35.5
573,2024-05-13T09:32:00,0,0.5,16.5,35.5
574,2024-05-13T09:33:00,0,0.5,16.5,35.5
575,2024-05-13T09:34:00,0,0.5,16.5,35.5
576,2024-05-13T09:35:00,0,0.5,16.5,35.5
577,2024-05-13T09:36:00,0,0.5,16.5,35.5
578,2024-05-13T09:37:00,0,0,16.5,35.5
579,2024-05-13T09:38:00,0,0,16.5,35.5
580,2024-05-13T09:39:00,0,0,16.5,35.5
581,2024-05-13T09:40:00,0,0,16.5,35.5
582,2024-05-13T09:41:00,0,0,16.5,35.5
583,2024-05-13T09:42:00,0,0,16.5,35.5
584,2024-05-13T09:43:00,0,0,16.5,35.5
585,2024-05-13T09:44:00,0,0,16.5,35.5
586,2024-05-13T09:45:00,0,0,16.5,35.5
587,2024-05-13T09:46:00,0,0,16.5,35.5
588,2024-05-13T09:47:00,0,0,16.5,35.5
589,2024-05-13T09:48:00,0,0,16.5,35.5
590,2024-05-13T09:49:00,0,0,16.5,35.5
591,2024-05-13T09:50:00,0,0,16.5,35.5
592,2024-05-13T09:51:00,0,0,16.5,35.5
593,2024-05-13T09:52:00,0,0,16.5,35.5
594,2024-05-13T09:53:00,0,0,16.5,35.5
595,2024-05-13T09:54:00,0,0,16.5,35.5
596,2024-05-13T09:55:00,0,0,16.5,35.5
597,2024-05-13T09:56:00,0,0,16.5,35.5
598,2024-05-13T09:57:00,0,0,16.5,35.5
599,2024-05-13T09:58:00,0,0,16.5,35.5
600,2024-05-13T09:59:00,0,0,16.5,35.5
601,2024-05-13T10:00:00,0,0,16.5,35.5
602,2024-05-13T10:01:00,0,0,16.5,35.5
603,2024-05-13T10:02:00,0,0,16.5,35.5
604,2024-05-13T10:03:00,0,0,16.5,35.5
605,2024-05-13T10:04:00,0,0,16.5,35.5
606,2024-05-13T10:05:00,0,0,16.5,35.5
607,2024-05-13T10:06:00,0,0,16.5,35.5
608,2024-05-13T10:07:00,0,0,16.5,35.5
609,2024-05-13T10:08:00,0,0,16.5,35.5
610,2024-05-13T10:09:00,0,0,16.5,35.5
611,2024-05-13T10:10:00,0.5,0.5,17,36
612,2024-05-13T10:11:00,0.5,0.5,17,36
613,2024-05-13T10:12:00,0.5,0.5,17,36
614,2024-05-13T10:13:00,0.5,0.5,17,36
615,2024-05-13T10:14:00,0.5,0.5,17,36
616,2024-05-13T10:15:00,0.5,0.5,17,36
617,2024-05-13T10:16:00,0.5,0.5,17,36
618,2024-05-13T10:17:00,0.5,0.5,17,36
619,2024-05-13T10:18:00,0.5,0.5,17,36
620,2024-05-13T10:19:00,0.5,0.5,17,36
621,2024-05-13T10:20:00,0,0.5,17,36
622,2024-05-13T10:21:00,0,0.5,17,36
623,2024-05-13T10:22:00,0,0.5,17,36
624,2024-05-13T10:23:00,0,0.5,17,36
625,2024-05-13T10:24:00,0,0.5,17,36
626,2024-05-13T10:25:00,0,0.5,17,36
627,2024-05-13T10:26:00,0,0.5,17,36
628,2024-05-13T10:27:00,0,0.5,17,36
629,2024-05-13T10:28:00,0,0.5,17,36
630,2024-05-13T10:29:00,0,0.5,17,36
631,2024-05-13T10:30:00,0.5,1,17.5,36.5
632,2024-05-13T10:31:00,0.5,1,17.5,36.5
633,2024-05-13T10:32:00,0.5,1,17.5,36.5
634,2024-05-13T10:33:00,0.5,1,17.5,36.5
635,2024-05-13T10:34:00,0.5,1,17.5,36.5
636,2024-05-13T10:35:00,0.5,1,17.5,36.5
637,2024-05-13T10:36:00,0.5,1,17.5,36.5
638,2024-05-13T10:37:00,0.5,1,17.5,36.5
639,2024-05-13T10:38:00,0.5,1,17.5,36.5
640,2024-05-13T10:39:00,0.5,1,17.5,36.5
641,2024-05-13T10:40:00,0,1,17.5,36.5
642,2024-05-13T10:41:00,0,1,17.5,36.5
643,2024-05-13T10:42:00,0,1,17.5,36.5
644,2024-05-13T10:43:00,0,1,17.5,36.5